This is the latest recevied weather packets stored in our database for station/object SP1BMW-13. If no packets are shown the sender has not sent any weather packets the latest 10 day(s).
| Time | Temp. | Humidity | Pressure | Rain* | Wind** | Luminosity | Snow |
|---|---|---|---|---|---|---|---|
| 1777724305 | 25.56° C | 27% | 1019 hPa | 0 mm | 1.79 m/s, 151° | 667 W/m² | - |
| 1777724245 | 25.56° C | 28% | 1019 hPa | 0 mm | 1.34 m/s, 118° | 667 W/m² | - |
| 1777724185 | 25.56° C | 27% | 1018.8 hPa | 0 mm | 3.58 m/s, 193° | 668 W/m² | - |
| 1777724125 | 25.56° C | 27% | 1019 hPa | 0 mm | 1.79 m/s, 104° | 670 W/m² | - |
| 1777724065 | 25.56° C | 29% | 1018.9 hPa | 0 mm | 0.45 m/s, 275° | 671 W/m² | - |
| 1777724006 | 25.56° C | 28% | 1019.1 hPa | 0 mm | 0.45 m/s, 31° | 670 W/m² | - |
| 1777723945 | 25.56° C | 28% | 1019 hPa | 0 mm | 1.34 m/s, 305° | 672 W/m² | - |
| 1777723885 | 25.56° C | 27% | 1018.9 hPa | 0 mm | 1.79 m/s, 282° | 672 W/m² | - |
| 1777723825 | 25.56° C | 28% | 1019 hPa | 0 mm | 0.45 m/s, 306° | 673 W/m² | - |
| 1777723765 | 25.56° C | 28% | 1019 hPa | 0 mm | 1.34 m/s, 284° | 674 W/m² | - |
| 1777723705 | 25.56° C | 27% | 1019 hPa | 0 mm | 1.34 m/s, 200° | 675 W/m² | - |
| 1777723645 | 25.56° C | 27% | 1019.1 hPa | 0 mm | 0.89 m/s, 164° | 675 W/m² | - |
| 1777723585 | 25.56° C | 27% | 1018.9 hPa | 0 mm | 2.24 m/s, 296° | 674 W/m² | - |
| 1777723525 | 25.56° C | 28% | 1019.1 hPa | 0 mm | 2.24 m/s, 286° | 675 W/m² | - |
| 1777723465 | 26.11° C | 28% | 1019 hPa | 0 mm | 0.45 m/s, 49° | 674 W/m² | - |
| 1777723405 | 26.11° C | 28% | 1019 hPa | 0 mm | 0.45 m/s, 229° | 674 W/m² | - |
| 1777723345 | 26.11° C | 29% | 1019.1 hPa | 0 mm | 2.68 m/s, 226° | 675 W/m² | - |
| 1777723285 | 26.11° C | 28% | 1019.2 hPa | 0 mm | 1.79 m/s, 247° | 676 W/m² | - |
| 1777723225 | 26.11° C | 28% | 1019.1 hPa | 0 mm | 1.79 m/s, 154° | 676 W/m² | - |
| 1777723165 | 26.11° C | 29% | 1019.1 hPa | 0 mm | 0.89 m/s, 260° | 677 W/m² | - |
| 1777723105 | 26.11° C | 28% | 1019.2 hPa | 0 mm | 0.89 m/s, 64° | 677 W/m² | - |
| 1777723045 | 26.11° C | 29% | 1019.3 hPa | 0 mm | 0.89 m/s, 354° | 678 W/m² | - |
| 1777722985 | 26.11° C | 29% | 1019.2 hPa | 0 mm | 1.34 m/s, 336° | 679 W/m² | - |
| 1777722925 | 26.11° C | 30% | 1019.3 hPa | 0 mm | 0.45 m/s, 302° | 677 W/m² | - |
| 1777722865 | 26.11° C | 30% | 1019.2 hPa | 0 mm | 0.89 m/s, 291° | 677 W/m² | - |
* Rain latest hour (hover to see other rain measurements)
** Current wind speed in m/s (hover to see current wind gust speed)